Roda de Ter - l'Esquerda





Hora UTC 08:10
Temperatura 0.9 ºC
Humitat 93.0 %
Pressió 1002.3 hPa
Pluja 0.0 mm
Velocitat vent 1.6 km/h
Direcció vent WSW

Dades diàries 2019-11-15



Hora UTC (hivern +1h; estiu +2h)
Temperatura (ºC) Humitat (%) Pressió (hPa) Velocitat vent (km/h) Precipitació (mm)
Hora UTC Aire Humitat Pressió Vel. Dir. Vel. Max Dir. Intent. màx 5 min.
00:05 2.2 90.0 999.8 0.0 S 0.0 0.0
00:10 2.3 89.0 999.7 0.0 S 3.2 0.0
00:15 2.2 89.0 999.8 0.0 S 3.2 0.0
00:20 2.2 89.0 999.9 0.0 S 0.0 0.0
00:25 2.2 90.0 1000.0 0.0 S 1.6 0.0
00:30 2.2 90.0 1000.0 0.0 S 1.6 0.0
00:35 2.3 90.0 999.9 0.0 S 1.6 0.0
00:40 2.2 90.0 999.9 1.6 ESE 3.2 0.0
00:45 2.2 90.0 999.9 0.0 ESE 3.2 0.0
00:50 2.1 90.0 1000.0 0.0 ESE 3.2 0.0
00:55 2.1 90.0 1000.1 0.0 ESE 3.2 0.0
01:00 1.7 90.0 999.9 0.0 ESE 1.6 0.0
01:05 1.6 90.0 999.9 0.0 ESE 1.6 0.0
01:10 1.4 90.0 1000.1 1.6 ESE 3.2 0.0
01:15 1.3 90.0 1000.0 0.0 ESE 3.2 0.0
01:20 1.2 90.0 1000.1 1.6 ESE 3.2 0.0
01:25 1.1 91.0 1000.3 0.0 ESE 1.6 0.0
01:30 1.2 91.0 1000.3 0.0 ESE 1.6 0.0
01:35 0.9 91.0 1000.4 0.0 ESE 1.6 0.0
01:40 0.9 91.0 1000.5 0.0 ESE 1.6 0.0
01:45 0.8 91.0 1000.5 1.6 ESE 3.2 0.0
01:50 0.9 91.0 1000.5 3.2 ESE 3.2 0.0
01:55 0.9 91.0 1000.5 0.0 ESE 3.2 0.0
02:00 0.9 91.0 1000.6 1.6 ESE 3.2 0.0
02:05 0.7 91.0 1000.5 0.0 ESE 1.6 0.0
02:10 0.7 91.0 1000.5 1.6 ESE 3.2 0.0
02:15 0.6 91.0 1000.5 0.0 ESE 3.2 0.0
02:20 0.7 91.0 1000.4 1.6 ESE 3.2 0.0
02:25 0.6 91.0 1000.4 0.0 ESE 3.2 0.0
02:30 0.4 91.0 1000.6 1.6 ESE 3.2 0.0
02:35 0.4 91.0 1000.6 0.0 ESE 3.2 0.0
02:40 0.5 92.0 1000.6 1.6 ESE 3.2 0.0
02:45 0.4 92.0 1000.5 0.0 ESE 3.2 0.0
02:50 0.2 91.0 1000.7 0.0 ESE 1.6 0.0
02:55 0.2 92.0 1000.6 0.0 ESE 1.6 0.0
03:00 0.3 92.0 1000.7 0.0 ESE 0.0 0.0
03:05 0.2 92.0 1000.7 1.6 ESE 1.6 0.0
03:10 0.1 92.0 1000.5 1.6 ESE 3.2 0.0
03:15 0.1 92.0 1000.6 0.0 ESE 3.2 0.0
03:20 0.3 92.0 1000.5 1.6 ESE 3.2 0.0
03:25 0.1 92.0 1000.6 1.6 ESE 3.2 0.0
03:30 -0.1 92.0 1000.5 0.0 ESE 3.2 0.0
03:35 -0.1 92.0 1000.5 0.0 ESE 3.2 0.0
03:40 0.1 92.0 1000.6 1.6 ESE 1.6 0.0
03:45 0.1 92.0 1000.6 1.6 ESE 3.2 0.0
03:50 0.1 92.0 1000.6 0.0 ESE 3.2 0.0
03:55 0.0 92.0 1000.6 0.0 ESE 3.2 0.0
04:00 -0.1 92.0 1000.5 1.6 ESE 3.2 0.0
04:05 -0.2 92.0 1000.7 0.0 S 3.2 0.0
04:10 0.0 92.0 1000.7 0.0 S 3.2 0.0
04:15 0.0 92.0 1000.9 0.0 S 1.6 0.0
04:20 -0.1 92.0 1000.9 0.0 S 0.0 0.0
04:25 -0.2 92.0 1000.9 0.0 S 0.0 0.0
04:30 0.0 92.0 1000.9 1.6 S 1.6 0.0
04:35 0.1 93.0 1000.9 0.0 S 1.6 0.0
04:40 0.2 92.0 1000.7 0.0 S 1.6 0.0
04:45 0.3 93.0 1000.7 1.6 S 1.6 0.0
04:50 0.3 93.0 1000.9 0.0 S 1.6 0.0
04:55 0.3 93.0 1000.8 0.0 S 1.6 0.0
05:00 0.3 93.0 1000.9 0.0 S 1.6 0.0
05:05 0.4 93.0 1000.9 0.0 S 1.6 0.0
05:10 0.6 93.0 1000.8 0.0 S 1.6 0.0
05:15 0.6 93.0 1000.8 0.0 S 1.6 0.0
05:20 0.4 93.0 1001.1 0.0 S 1.6 0.0
05:25 0.4 93.0 1001.0 0.0 S 1.6 0.0
05:30 0.5 93.0 1001.0 0.0 S 1.6 0.0
05:35 0.6 93.0 1001.0 1.6 S 1.6 0.0
05:40 0.6 93.0 1001.1 1.6 S 1.6 0.0
05:45 0.6 93.0 1001.1 0.0 S 1.6 0.0
05:50 0.7 93.0 1001.1 1.6 S 3.2 0.0
05:55 0.8 93.0 1001.1 0.0 S 3.2 0.0
06:00 0.8 93.0 1001.2 1.6 S 3.2 0.0
06:05 0.8 93.0 1001.1 1.6 S 3.2 0.0
06:10 0.8 93.0 1001.2 3.2 SSW 3.2 0.0
06:15 0.8 93.0 1001.2 0.0 SSW 4.8 0.0
06:20 0.8 93.0 1001.2 0.0 SSW 3.2 0.0
06:25 0.8 93.0 1001.3 0.0 SSW 3.2 0.0
06:30 0.8 93.0 1001.4 0.0 SSW 3.2 0.0
06:35 0.9 93.0 1001.4 3.2 SSW 3.2 0.0
06:40 0.8 93.0 1001.4 1.6 SSW 4.8 0.0
06:45 0.8 93.0 1001.5 1.6 SW 4.8 0.0
06:50 0.7 93.0 1001.5 1.6 SW 4.8 0.0
06:55 0.7 93.0 1001.5 1.6 SW 4.8 0.0
07:00 0.8 93.0 1001.6 0.0 SW 4.8 0.0
07:05 0.8 93.0 1001.7 0.0 SW 3.2 0.0
07:10 0.8 93.0 1001.7 0.0 SW 1.6 0.0
07:15 0.8 93.0 1001.8 0.0 SW 1.6 0.0
07:20 0.8 93.0 1001.9 3.2 SW 3.2 0.0
07:25 0.8 93.0 1002.0 1.6 SW 3.2 0.0
07:30 0.9 93.0 1002.2 0.0 SW 3.2 0.0
07:35 0.8 93.0 1002.3 0.0 SW 3.2 0.0
07:40 0.9 93.0 1002.3 0.0 SW 3.2 0.0
07:45 1.0 93.0 1002.4 4.8 SW 4.8 0.0
07:50 1.0 93.0 1002.4 1.6 SW 4.8 0.0
07:55 0.9 93.0 1002.3 1.6 WSW 4.8 0.0
08:00 0.9 93.0 1002.4 0.0 WSW 4.8 0.0
08:05 0.9 93.0 1002.3 0.0 WSW 1.6 0.0
08:10 0.9 93.0 1002.3 1.6 WSW 3.2 0.0
Màxima 3.0 93.0 1002.4 4.8 SW 4.8 0.0
Mínima -0.2 89.0 999.7
Total 0.0